Wind_Speed
26 24 22 21 21 21 21 20 21 22 22 23 22 23 23 25 26 26 27 27 28 30 31 31 30 30 31 31 31 31 30 30 30 30 29 29 27 27 27 27 28 29 30
29 27 25 24 23 24 24 23 24 24 25 26 27 28 28 28 29 30 29 29 30 31 32 33 32 31 31 31 30 33 33 32 32 32 31 30 30 30 30 31 32 33 34
31 30 29 27 27 26 26 26 26 27 28 29 30 29 30 31 31 32 32 32 32 33 33 34 33 32 32 33 34 34 32 33 34 34 34 32 33 33 33 34 36 37 38
32 31 31 30 29 29 28 28 29 30 31 32 32 32 32 32 33 33 35 36 36 35 36 38 36 34 34 35 36 36 36 36 35 37 36 36 36 37 38 39 40 40 42
33 32 31 31 31 31 30 31 31 33 34 35 34 34 35 35 35 36 38 38 37 36 37 38 37 36 37 37 37 37 37 37 37 38 38 38 39 40 42 43 44 45 46
33 33 33 33 33 33 32 33 34 36 36 36 35 36 36 37 36 37 37 37 37 38 38 39 38 39 39 39 39 38 38 39 39 38 40 42 43 44 46 46 47 49 50
34 35 35 35 35 35 35 36 37 39 39 39 38 38 37 37 37 38 38 39 38 38 39 39 40 41 41 40 40 40 41 42 41 43 44 46 47 48 49 50 51 52 53
36 37 38 38 38 38 38 39 40 40 40 41 41 40 39 39 39 40 40 40 40 40 40 41 41 42 41 41 43 43 43 44 45 47 49 51 51 51 52 53 53 55 57
37 38 40 41 41 41 42 42 42 42 42 41 41 42 42 42 42 42 42 42 42 42 42 42 43 44 44 44 46 47 48 49 51 52 53 54 55 55 55 56 58 58 59
37 38 39 41 41 42 43 44 44 44 45 44 44 44 44 44 45 45 45 44 43 42 43 44 44 45 47 49 50 51 53 53 54 55 56 57 57 58 59 60 61 62 62
38 39 39 40 41 42 43 44 44 44 44 44 43 44 44 45 45 46 45 45 44 44 45 46 47 49 51 52 53 54 54 55 57 58 60 61 61 61 62 62 62 63 62
38 38 39 40 40 41 41 41 42 43 43 44 43 43 43 43 44 44 44 45 46 47 48 48 50 52 53 55 55 55 57 58 59 60 60 61 62 62 61 61 61 61 60
37 38 38 38 38 38 38 38 39 39 41 42 43 43 43 42 43 45 46 46 47 48 50 51 52 53 54 56 57 58 58 59 59 59 59 59 59 59 59 59 58 58 58
37 36 36 36 35 34 35 35 36 36 37 38 39 40 41 42 43 43 44 45 47 49 50 51 52 53 54 55 56 57 57 57 58 58 58 57 57 57 57 56 56 55 55
34 34 34 34 33 33 33 33 34 35 35 35 36 37 38 39 41 41 43 44 46 47 48 50 51 53 54 55 56 57 57 57 57 56 55 55 55 54 53 53 52 51 51
32 32 31 31 31 30 29 29 29 30 31 32 34 35 37 38 39 40 42 43 45 47 49 50 51 52 53 54 54 55 55 54 54 53 52 52 52 51 49 47 46 45 44
29 29 29 28 28 27 27 27 27 27 29 30 31 32 34 35 37 39 41 42 44 46 48 49 51 52 53 53 54 53 52 51 50 49 48 47 45 43 42 40 40 38 37
26 27 26 25 25 25 25 24 25 26 28 29 30 31 33 35 36 38 39 41 43 45 47 49 50 50 51 50 50 49 48 46 45 43 41 40 38 36 35 34 32 31 29
23 23 23 24 24 25 24 25 26 27 28 29 30 31 32 33 35 36 38 40 42 44 45 46 45 45 45 45 43 42 41 39 38 36 34 33 32 30 28 26 25 23 23
21 22 22 22 23 23 24 25 25 26 27 28 29 30 31 32 33 34 36 38 39 41 41 41 40 40 39 37 36 35 33 31 29 28 27 26 25 23 21 20 19 18 18
19 19 20 20 21 22 23 24 24 25 26 27 27 28 29 30 31 32 33 35 35 36 35 34 34 33 32 30 29 28 26 25 24 23 21 20 18 17 16 15 14 14 14
17 17 18 19 20 21 21 21 22 23 23 24 25 26 27 28 29 29 30 29 29 29 29 29 28 28 27 26 25 24 23 21 19 17 16 14 13 12 11 11 11 11 11
15 16 17 18 18 19 20 20 20 21 22 22 23 25 25 26 26 26 26 26 25 25 25 25 25 24 23 22 21 20 18 16 14 12 11 10 10 9 9 9 10 11 11
14 15 16 16 17 18 18 18 18 19 20 22 23 23 24 24 23 23 23 23 23 23 22 22 21 20 19 17 17 15 14 12 11 10 9 9 10 9 10 10 11 11 12
13 14 14 15 16 16 16 17 17 19 20 21 21 22 21 21 21 21 21 21 20 20 19 19 18 17 15 14 13 12 11 11 10 10 10 10 10 11 11 12 12 12 13
13 14 14 14 14 15 15 16 17 18 19 19 19 19 19 18 18 18 17 17 17 17 16 16 15 13 12 11 11 11 11 11 11 11 11 11 12 12 12 12 13 14 14
Wind_Direction
242 243 244 244 246 248 249 251 255 256 258 260 262 265 267 268 270 272 274 274 276 276 276 277 275 277 278 278 278 281 279 276 276 278 278 277 277 277 277 277 277 278 279
244 244 245 244 248 253 252 251 255 260 261 262 263 265 267 268 272 274 276 277 279 280 280 280 278 280 282 281 283 285 281 275 276 278 280 277 278 279 279 278 278 278 278
245 245 246 246 247 251 254 252 254 258 261 261 262 266 270 272 275 277 279 281 283 285 283 280 280 281 284 285 286 286 284 281 280 280 281 280 279 279 280 280 279 278 279
243 244 246 247 249 252 255 258 258 258 262 264 266 270 272 273 277 281 283 283 283 285 285 286 285 283 285 286 285 286 287 286 283 282 283 282 280 280 281 281 281 280 280
243 244 246 249 251 253 256 260 262 264 265 267 270 271 275 278 280 283 284 286 286 287 289 290 289 288 287 288 288 287 289 289 286 285 284 282 282 282 282 282 282 282 282
244 245 248 251 253 254 255 258 262 265 267 268 270 272 275 277 281 284 286 289 288 287 288 291 289 289 291 291 291 288 289 290 288 286 286 284 284 284 284 283 283 283 284
247 248 250 252 254 256 258 260 263 267 269 271 273 276 277 280 284 286 287 290 290 290 290 291 291 290 291 291 290 289 289 290 289 289 289 288 288 286 285 284 284 284 284
251 252 253 255 256 258 261 263 265 268 270 272 275 279 281 281 284 286 288 290 291 291 290 291 291 290 292 292 292 292 291 289 289 290 290 289 289 288 286 285 285 285 285
254 256 258 260 261 263 264 265 266 269 271 274 277 278 281 282 284 286 288 289 290 291 289 290 290 291 292 292 291 291 292 290 289 290 290 290 288 288 287 287 287 286 285
258 258 260 262 264 266 267 267 270 270 272 274 275 276 278 281 281 282 286 288 290 289 289 290 290 290 291 292 291 292 292 291 291 291 290 290 288 288 287 287 287 286 285
262 263 263 264 266 268 270 271 271 272 271 272 275 276 277 279 280 282 284 286 286 286 288 290 290 290 291 291 291 292 291 292 291 291 291 290 290 289 288 288 287 287 286
267 268 269 268 270 272 273 272 272 273 273 273 274 277 278 278 279 281 283 284 285 287 288 289 290 290 290 290 291 291 291 291 291 291 291 290 290 289 289 289 288 288 288
269 271 273 274 276 276 277 274 274 274 274 273 273 276 277 278 280 282 283 284 285 286 287 288 289 289 289 291 291 292 292 292 292 292 292 291 291 290 290 290 290 290 289
271 273 274 275 277 276 275 275 275 274 275 276 275 275 276 278 281 283 283 283 285 287 288 289 290 291 291 292 293 293 293 293 293 292 292 292 292 292 291 291 291 291 291
274 276 277 277 276 277 275 274 274 275 275 276 276 278 281 282 282 283 283 285 286 287 289 290 291 292 292 293 294 294 294 294 294 293 293 293 293 293 292 292 293 293 292
273 275 276 277 277 277 276 276 276 276 276 277 279 279 280 280 282 283 284 285 287 289 290 291 292 292 294 295 295 295 295 295 295 294 294 294 294 294 294 294 294 294 294
273 273 275 275 278 279 279 279 280 279 279 280 280 279 280 281 283 285 286 287 290 291 292 293 293 294 295 295 295 295 295 295 295 295 295 296 296 296 296 297 297 297 297
271 271 274 277 279 280 281 280 278 278 279 280 281 282 283 284 285 287 289 291 292 292 294 295 296 296 297 297 297 297 297 297 297 297 297 298 298 298 299 300 300 301 301
271 274 277 279 280 280 281 280 279 279 282 284 286 288 288 289 291 293 294 295 296 297 298 299 300 300 300 300 300 300 300 300 300 299 299 300 300 301 302 303 305 306 309
274 277 277 276 276 277 279 280 281 283 285 288 289 291 292 294 296 298 299 300 300 301 301 302 303 305 305 306 307 307 307 307 306 305 305 306 306 307 309 311 313 315 317
275 275 275 275 274 277 280 283 285 287 288 289 292 294 296 298 300 302 304 305 306 307 308 309 311 311 312 313 314 315 315 314 313 313 313 313 314 316 318 320 322 324 327
276 276 278 279 282 284 286 288 290 291 293 294 296 298 300 302 304 307 309 311 313 314 315 316 317 317 318 319 320 321 322 323 324 324 325 326 328 330 332 335 338 341 345
280 280 281 284 286 289 291 292 294 296 297 299 301 302 304 306 308 311 313 316 318 319 320 321 322 323 325 326 328 331 333 336 339 342 347 352 356 358 1 2 1 3 4
286 287 289 290 292 293 295 296 298 300 302 303 304 305 306 308 310 312 315 318 320 322 324 326 328 330 332 335 338 343 349 355 1 9 16 20 22 23 19 16 16 15 13
293 294 295 296 297 297 298 300 303 306 307 308 308 308 308 310 313 315 318 321 323 325 327 330 332 335 339 344 350 359 8 16 25 32 32 31 31 29 27 25 23 21 17
299 300 300 300 301 302 303 305 307 310 312 313 312 311 312 315 318 320 323 325 327 329 332 335 340 346 353 1 9 17 24 32 36 36 35 34 32 31 31 30 28 24 20
Height
5851 5853 5856 5857 5859 5860 5860 5862 5863 5863 5864 5864 5864 5863 5862 5861 5860 5859 5857 5856 5855 5853 5852 5851 5850 5849 5849 5848 5846 5845 5844 5843 5842 5841 5840 5839 5838 5837 5836 5834 5833 5832 5830
5847 5849 5851 5853 5854 5855 5855 5856 5857 5857 5857 5857 5857 5856 5855 5854 5853 5851 5850 5849 5847 5845 5844 5843 5842 5842 5841 5839 5838 5837 5835 5834 5834 5833 5832 5831 5831 5829 5828 5826 5825 5824 5822
5842 5844 5845 5847 5849 5850 5850 5850 5850 5850 5850 5849 5849 5849 5848 5847 5846 5845 5843 5842 5840 5838 5836 5834 5834 5833 5833 5832 5831 5830 5828 5827 5825 5824 5824 5823 5822 5821 5819 5817 5816 5814 5813
5836 5838 5840 5841 5842 5843 5844 5844 5843 5843 5843 5842 5840 5840 5839 5838 5838 5837 5836 5834 5832 5831 5829 5827 5826 5825 5825 5824 5822 5821 5820 5818 5817 5815 5814 5813 5812 5811 5809 5808 5806 5804 5802
5830 5831 5833 5835 5836 5837 5837 5837 5837 5837 5836 5835 5833 5832 5831 5830 5829 5829 5827 5825 5824 5823 5822 5820 5818 5817 5817 5816 5814 5812 5811 5808 5807 5805 5804 5803 5801 5799 5798 5796 5794 5792 5790
5823 5825 5827 5828 5829 5830 5830 5831 5830 5829 5828 5826 5824 5824 5823 5822 5821 5820 5819 5818 5816 5815 5813 5811 5809 5809 5808 5806 5805 5803 5801 5799 5797 5795 5794 5792 5790 5788 5786 5784 5781 5779 5776
5817 5818 5819 5821 5822 5822 5823 5823 5822 5821 5820 5818 5817 5816 5815 5813 5812 5812 5811 5810 5808 5806 5805 5803 5802 5800 5798 5797 5795 5793 5791 5789 5787 5785 5783 5780 5778 5775 5773 5770 5768 5765 5762
5810 5811 5812 5813 5814 5815 5815 5815 5814 5813 5813 5811 5810 5808 5806 5805 5804 5804 5803 5801 5800 5798 5796 5794 5793 5791 5789 5787 5785 5783 5781 5778 5775 5773 5771 5768 5765 5762 5759 5756 5753 5750 5747
5803 5804 5804 5805 5806 5806 5806 5806 5805 5804 5804 5803 5802 5800 5798 5796 5795 5794 5793 5791 5790 5788 5787 5785 5783 5781 5779 5777 5775 5772 5769 5766 5763 5760 5757 5754 5751 5747 5744 5741 5737 5734 5731
5795 5795 5796 5796 5796 5796 5796 5796 5796 5795 5795 5794 5793 5791 5790 5788 5787 5785 5784 5782 5780 5778 5776 5775 5773 5770 5768 5766 5763 5760 5757 5753 5749 5746 5742 5738 5735 5731 5727 5723 5720 5716 5713
5786 5786 5786 5786 5786 5787 5786 5786 5786 5785 5784 5784 5783 5781 5780 5778 5777 5776 5775 5772 5770 5768 5766 5764 5762 5759 5756 5753 5750 5747 5743 5739 5736 5731 5727 5723 5719 5715 5710 5706 5702 5697 5693
5777 5777 5777 5777 5777 5777 5776 5776 5775 5775 5774 5774 5773 5772 5770 5769 5767 5765 5764 5761 5759 5757 5755 5752 5750 5747 5744 5740 5737 5733 5729 5725 5721 5716 5711 5707 5702 5697 5693 5688 5683 5679 5675
5769 5769 5769 5768 5768 5767 5767 5766 5765 5765 5764 5763 5763 5762 5761 5759 5757 5755 5753 5751 5749 5746 5744 5741 5738 5734 5731 5727 5723 5719 5714 5710 5705 5700 5695 5690 5685 5681 5676 5671 5667 5662 5658
5760 5760 5760 5760 5759 5758 5757 5757 5756 5755 5754 5754 5753 5752 5750 5749 5747 5745 5742 5740 5738 5735 5732 5729 5725 5721 5717 5713 5709 5704 5699 5694 5689 5684 5679 5674 5670 5665 5660 5655 5651 5646 5642
5752 5752 5751 5751 5750 5750 5749 5748 5747 5746 5745 5744 5743 5742 5740 5739 5737 5734 5732 5729 5727 5724 5720 5717 5713 5708 5704 5699 5694 5689 5684 5679 5674 5668 5664 5659 5654 5650 5645 5641 5636 5632 5627
5743 5743 5743 5742 5742 5741 5740 5739 5738 5738 5737 5736 5734 5733 5731 5729 5727 5724 5721 5719 5716 5712 5709 5705 5700 5695 5690 5685 5680 5675 5669 5664 5659 5654 5649 5644 5640 5636 5631 5627 5623 5619 5615
5736 5735 5734 5734 5733 5732 5732 5731 5730 5730 5728 5727 5725 5723 5722 5720 5717 5714 5711 5708 5705 5701 5697 5692 5688 5683 5677 5672 5667 5661 5656 5650 5645 5640 5636 5631 5627 5623 5619 5615 5611 5608 5604
5728 5727 5727 5726 5726 5725 5724 5723 5722 5721 5720 5719 5717 5715 5713 5710 5707 5705 5702 5698 5694 5690 5685 5680 5675 5670 5664 5659 5653 5648 5643 5638 5633 5628 5624 5620 5617 5613 5609 5606 5603 5599 5596
5721 5721 5720 5720 5719 5718 5717 5716 5715 5714 5712 5711 5709 5706 5704 5701 5699 5695 5692 5688 5684 5679 5674 5669 5664 5659 5653 5647 5641 5636 5631 5626 5622 5618 5615 5611 5608 5605 5601 5599 5596 5593 5590
5715 5714 5714 5713 5712 5711 5710 5709 5707 5706 5704 5702 5701 5698 5696 5693 5690 5686 5683 5678 5674 5669 5664 5659 5654 5649 5643 5637 5632 5627 5622 5618 5614 5610 5607 5604 5601 5599 5596 5594 5591 5589 5586
5709 5709 5708 5707 5706 5705 5704 5702 5700 5699 5697 5695 5693 5691 5688 5685 5682 5678 5674 5670 5665 5660 5655 5651 5646 5641 5635 5630 5625 5621 5616 5612 5608 5605 5602 5599 5596 5594 5592 5590 5588 5585 5583
5704 5704 5703 5702 5700 5699 5698 5696 5694 5693 5691 5689 5686 5684 5681 5678 5675 5671 5667 5663 5658 5654 5649 5644 5640 5635 5630 5625 5621 5616 5612 5608 5604 5601 5598 5596 5594 5592 5590 5588 5586 5584 5582
5700 5699 5698 5697 5695 5694 5693 5691 5689 5687 5685 5683 5680 5678 5675 5672 5668 5665 5661 5657 5653 5649 5644 5640 5635 5631 5626 5622 5617 5613 5609 5606 5602 5600 5597 5595 5593 5591 5589 5588 5586 5584 5582
5696 5695 5693 5692 5691 5689 5688 5686 5684 5682 5680 5677 5675 5672 5669 5666 5662 5659 5655 5652 5648 5644 5640 5636 5632 5628 5624 5620 5616 5612 5609 5605 5603 5600 5598 5596 5594 5592 5591 5589 5587 5585 5582
5692 5691 5689 5688 5686 5685 5683 5681 5679 5677 5674 5672 5669 5666 5663 5660 5657 5654 5651 5648 5644 5641 5637 5634 5630 5627 5623 5619 5616 5612 5609 5606 5604 5602 5600 5598 5596 5594 5592 5590 5588 5586 5583
5689 5687 5686 5684 5682 5681 5679 5677 5675 5672 5670 5667 5664 5661 5658 5656 5653 5650 5647 5644 5641 5638 5635 5632 5628 5625 5622 5619 5616 5613 5611 5608 5606 5604 5602 5600 5598 5596 5594 5592 5590 5587 5585